Cardiff-Wales, United Kingdom

2:22 PM GMT on March 23, 2017 (GMT +0000)
Cardiff-Wales

Weather History for EGFF - June, 2013

Change the Weather History Date:

Saturday, June 15, 2013

  Actual Average Record
Temperature  
Mean Temperature 54 °F -  
Max Temperature 57 °F 66 °F 77 °F (2004)
Min Temperature 50 °F 52 °F 42 °F (2008)
Degree Days  
Heating Degree Days 12    
Growing Degree Days 4 (Base 50)    
Moisture  
Dew Point 49 °F    
Average Humidity 83    
Maximum Humidity 94    
Minimum Humidity 77    
Precipitation  
Precipitation 0.00 in 0.09 in - ()
Sea Level Pressure  
Sea Level Pressure 29.76 in    
Wind  
Wind Speed 16 mph ()    
Max Wind Speed 24 mph    
Max Gust Speed 38 mph    
Visibility 6.2 miles    
Events Rain    
Averages and records for this station are not official NWS values.
T = Trace of Precipitation, MM = Missing Value Source: Averaged Metar Reports

Daily Weather History Graph

Daily Weather History Graph

Search for Another Location

Airport or City:

Trip Planner

Search our weather history database for the weather conditions in past years. The results will help you decide how hot, cold, wet, or windy it might be!

Date:

Astronomy

Jun. 15, 2013 Rise Set
Actual Time 4:56 AM BST 9:31 PM BST
Civil Twilight 4:08 AM BST 10:19 PM BST
Nautical Twilight 2:55 AM BST 11:32 PM BST
Astronomical Twilight 1:46 AM BST 12:41 AM BST
Moon 11:58 AM BST (6/15) 12:22 AM BST (6/15)
Length of Visible Light 18h 10m
Length of Day
16h 35m
Waxing Crescent, 37% of the Moon is Illuminated
Jun 15
Waxing Crescent
Jun 16
First Quarter
Jun 23
Full
Jun 30
Last Quarter
Jul 8
New

Hourly Weather History & Observations

Time (BST) Temp. Dew Point Humidity Pressure Visibility Wind Dir Wind Speed Gust Speed Precip Events Conditions
12:20 AM 53.6 °F 50.0 °F 88% 29.71 in 6.2 mi WSW 16.1 mph - N/A   Mostly Cloudy
12:50 AM 51.8 °F 50.0 °F 94% 29.71 in 6.2 mi WSW 15.0 mph - N/A   Mostly Cloudy
1:20 AM 51.8 °F 48.2 °F 88% 29.71 in 6.2 mi WSW 16.1 mph - N/A   Mostly Cloudy
1:50 AM 51.8 °F 48.2 °F 88% 29.71 in 6.2 mi WSW 15.0 mph - N/A   Mostly Cloudy
2:20 AM 51.8 °F 46.4 °F 82% 29.71 in 6.2 mi WSW 13.8 mph - N/A   Mostly Cloudy
2:50 AM 51.8 °F 48.2 °F 88% 29.71 in 6.2 mi WSW 13.8 mph - N/A Rain Rain Showers
3:20 AM 51.8 °F 48.2 °F 88% 29.68 in 6.2 mi WSW 15.0 mph - N/A   Scattered Clouds
3:50 AM 50.0 °F 46.4 °F 87% 29.71 in 6.2 mi WSW 16.1 mph - N/A Rain Rain
4:20 AM 50.0 °F 46.4 °F 87% 29.68 in 6.2 mi WSW 15.0 mph - N/A Rain Rain
4:50 AM 50.0 °F 46.4 °F 87% 29.68 in 6.2 mi WSW 13.8 mph - N/A   Partly Cloudy
5:20 AM 50.0 °F 46.4 °F 87% 29.68 in 6.2 mi WSW 19.6 mph - N/A   Scattered Clouds
5:50 AM 50.0 °F 44.6 °F 82% 29.68 in 6.2 mi West 19.6 mph - N/A   Scattered Clouds
6:20 AM 50.0 °F 44.6 °F 82% 29.71 in 5.6 mi West 19.6 mph 31.1 mph N/A Rain Rain Showers
6:50 AM 50.0 °F 44.6 °F 82% 29.71 in 6.2 mi West 15.0 mph - N/A   Scattered Clouds
7:20 AM 51.8 °F 46.4 °F 82% 29.71 in 6.2 mi West 17.3 mph - N/A   Partly Cloudy
7:50 AM 51.8 °F 46.4 °F 82% 29.71 in 6.2 mi WSW 18.4 mph - N/A   Scattered Clouds
8:20 AM 51.8 °F 46.4 °F 82% 29.71 in 6.2 mi West 19.6 mph 31.1 mph N/A   Scattered Clouds
8:50 AM 53.6 °F 46.4 °F 77% 29.74 in 6.2 mi West 19.6 mph - N/A   Mostly Cloudy
9:20 AM 53.6 °F 46.4 °F 77% 29.74 in 6.2 mi WSW 17.3 mph - N/A   Mostly Cloudy
9:50 AM 55.4 °F 48.2 °F 77% 29.74 in 6.2 mi WSW 15.0 mph - N/A   Scattered Clouds
10:20 AM 55.4 °F 48.2 °F 77% 29.74 in 6.2 mi West 16.1 mph - N/A   Scattered Clouds
10:50 AM 55.4 °F 48.2 °F 77% 29.74 in 6.2 mi WSW 17.3 mph - N/A   Scattered Clouds
11:20 AM 55.4 °F 50.0 °F 82% 29.74 in 6.2 mi West 13.8 mph - N/A Rain Rain Showers
11:50 AM 53.6 °F 50.0 °F 88% 29.74 in 6.2 mi West 12.7 mph - N/A Rain Light Rain Showers
12:20 PM 51.8 °F 50.0 °F 94% 29.77 in 5.0 mi West 15.0 mph - N/A Rain Rain Showers
12:50 PM 51.8 °F 50.0 °F 94% 29.74 in 6.2 mi West 11.5 mph - N/A   Mostly Cloudy
1:20 PM 57.2 °F 51.8 °F 82% 29.74 in 6.2 mi West 19.6 mph - N/A   Mostly Cloudy
1:50 PM 57.2 °F 50.0 °F 77% 29.77 in 6.2 mi WSW 21.9 mph - N/A   Scattered Clouds
2:20 PM 57.2 °F 50.0 °F 77% 29.77 in 6.2 mi West 20.7 mph - N/A   Scattered Clouds
2:50 PM 57.2 °F 50.0 °F 77% 29.77 in 6.2 mi WSW 20.7 mph - N/A   Scattered Clouds
3:20 PM 57.2 °F 50.0 °F 77% 29.77 in 6.2 mi West 23.0 mph - N/A   Scattered Clouds
3:50 PM 57.2 °F 50.0 °F 77% 29.80 in 6.2 mi West 23.0 mph 34.5 mph N/A   Scattered Clouds
4:20 PM 57.2 °F 50.0 °F 77% 29.80 in 6.2 mi West 21.9 mph 38.0 mph N/A   Partly Cloudy
4:50 PM 57.2 °F 50.0 °F 77% 29.80 in 6.2 mi West 24.2 mph 35.7 mph N/A   Scattered Clouds
5:20 PM 57.2 °F 50.0 °F 77% 29.80 in 6.2 mi West 24.2 mph - N/A   Scattered Clouds
5:50 PM 57.2 °F 50.0 °F 77% 29.80 in 6.2 mi West 23.0 mph 34.5 mph N/A   Mostly Cloudy
6:20 PM 57.2 °F 50.0 °F 77% 29.83 in 6.2 mi West 23.0 mph - N/A   Scattered Clouds
6:50 PM 55.4 °F 50.0 °F 82% 29.83 in 6.2 mi West 20.7 mph 33.4 mph N/A   Scattered Clouds
7:20 PM 55.4 °F 50.0 °F 82% 29.83 in 6.2 mi West 19.6 mph - N/A   Scattered Clouds
7:50 PM 55.4 °F 50.0 °F 82% 29.83 in 6.2 mi West 20.7 mph - N/A   Scattered Clouds
8:20 PM 55.4 °F 48.2 °F 77% 29.83 in 6.2 mi West 18.4 mph 29.9 mph N/A   Scattered Clouds
8:50 PM 55.4 °F 48.2 °F 77% 29.83 in 6.2 mi West 18.4 mph - N/A   Scattered Clouds
9:20 PM 53.6 °F 50.0 °F 88% 29.83 in 6.2 mi West 19.6 mph - N/A   Scattered Clouds
9:50 PM 53.6 °F 48.2 °F 82% 29.86 in 6.2 mi West 17.3 mph - N/A   Mostly Cloudy
10:20 PM 53.6 °F 50.0 °F 88% 29.86 in 6.2 mi West 19.6 mph - N/A   Overcast
10:50 PM 53.6 °F 50.0 °F 88% 29.86 in 6.2 mi WSW 18.4 mph - N/A   Mostly Cloudy
11:20 PM 53.6 °F 50.0 °F 88% 29.86 in 6.2 mi West 19.6 mph - N/A   Mostly Cloudy
11:50 PM 53.6 °F 50.0 °F 88% 29.86 in 6.2 mi West 17.3 mph - N/A   Scattered Clouds